Location: K�ln
(50.9455°N, 6.9544°E)
Time: 01:29:27
(UTC+02:00)

ISS - Visible Passes

Search period start: 25 May 2018 00:00
Search period end: 04 June 2018 00:00
Orbit: 402 x 407 km, 51.6° (Epoch: 25 May)

Date Brightness Start Highest point End Pass type
(mag) Time Alt. Az. Time Alt. Az. Time Alt. Az.
25 May -3.7 00:29:03 10° W 00:32:20 77° N 00:35:37 10° E visible
25 May -3.5 02:05:35 10° W 02:08:18 48° WSW 02:08:18 48° WSW visible
25 May -3.7 23:36:50 10° W 23:40:06 77° N 23:43:23 10° E visible
26 May -4.0 01:13:22 10° WNW 01:16:38 76° SSW 01:17:15 54° SE visible
26 May -3.8 22:44:36 10° W 22:47:52 86° NNW 22:51:09 10° E visible
27 May -3.9 00:21:08 10° W 00:24:26 88° N 00:26:25 22° E visible
27 May -2.0 01:57:44 10° W 01:59:02 20° W 01:59:02 20° W visible
27 May -3.7 23:28:54 10° W 23:32:11 78° N 23:35:28 10° E visible
28 May -3.5 01:05:26 10° W 01:08:18 47° SW 01:08:18 47° SW visible
28 May -3.7 22:36:38 10° W 22:39:55 76° N 22:43:12 10° E visible
29 May -3.9 00:13:10 10° WNW 00:16:26 68° SSW 00:17:38 35° SE visible
29 May -1.2 01:50:07 10° W 01:50:16 11° W 01:50:16 11° W visible
29 May -3.9 23:20:55 10° W 23:24:12 87° S 23:27:01 13° ESE visible
30 May -2.4 00:57:34 10° W 00:59:38 25° WSW 00:59:38 25° WSW visible
30 May -3.7 22:28:38 10° W 22:31:56 81° N 22:35:12 10° E visible
31 May -3.4 00:05:11 10° W 00:08:19 43° SSW 00:09:02 36° S visible
31 May -3.8 23:12:52 10° W 23:16:06 61° SSW 23:18:27 17° ESE visible
01 Jun -1.6 00:49:58 10° W 00:51:05 14° WSW 00:51:05 14° WSW visible
01 Jun -3.8 22:20:34 10° WNW 22:23:50 81° SSW 22:27:07 10° ESE visible
01 Jun -2.6 23:57:17 10° W 00:00:02 25° SSW 00:00:31 24° SSW visible
02 Jun -3.1 23:04:49 10° W 23:07:53 37° SSW 23:09:59 17° SSE visible
03 Jun -1.7 23:49:49 10° WSW 23:51:36 14° SW 23:52:06 14° SSW visible
